World > North America > United States > Wisconsin

Wisconsin Rapids, Wisconsin Regional Weather

Lat: 44.40N, Lon: 89.84W
Wx Zone: WIZ035Web Search
Wisconsin Rapids Weather Warning NWS WEATHER ALERT FOR THE WISCONSIN RAPIDS, WI AREA - Issued: 248 PM CST Tue Nov 24 2020 Wisconsin Rapids Weather Warning  

Helpful Tip: Abbreviated, 7 Day, 14 Day Forecasts. There is a weather forecast for every taste.

Feedback
Wisconsin Rapids Weather Map
UTC Time: 11/24/2020, 23:30
Your Time:

Wisconsin Rapids, WI Regional Weather

Expires:202011250000;;345659
ASUS43 KMKX 242320
RWRWI 

WISCONSIN REGIONAL WEATHER ROUNDUP
NATIONAL WEATHER SERVICE MILWAUKEE/SULLIVAN WI
500 PM CST TUE NOV 24 2020

NOTE: "FAIR" INDICATES FEW OR NO CLOUDS BELOW 12,000 FEET WITH NO
SIGNIFICANT WEATHER AND/OR OBSTRUCTIONS TO VISIBILITY.


WIZ029-030-035-036-043>047-250000-
CENTRAL WISCONSIN
  
CITY           SKY/WX    TMP DP  RH WIND       PRES   REMARKS
WAUSAU         LGT SNOW  33  33 100 E6        29.89F FOG     WCI  28  
MOSINEE        LGT SNOW  32  30  93 SE8       29.91F WCI  25          
MARSHFIELD     LGT SNOW  33  31  92 SE9       29.87F FOG     WCI  25  
STEVENS POINT  MIX PCPN  31  31 100 E5        29.92F WCI  27          
WAUPACA        LGT RAIN  35  33  94 SE5       29.94F WCI  31          
WAUTOMA        LGT SNOW  32  31  96 E5        29.93F FOG     WCI  27  
WISC RAPIDS    LGT SNOW  33  32  96 E8        29.91F FOG     WCI  26  
CAMP DOUGLAS   LGT SNOW  32  32 100 E6        29.88F FOG     WCI  26  
$$
 

SKY/WX - Weather  TMP - Temperature  DP - Dew Point  RH - Relative Humidity
WIND - Wind Direction/Speed PRES - Barometric Pressure VSB - Visibility
WCI - Wind Chill Index E13G22 Wind - East Wind 13 mph/Gusts of 22 mph